When you browse on this site, cookies collect data to enhance your experience and personalize the content and advertising you see.
Visit our Privacy Policy to learn more. By continuing to use the site, you agree to this use of cookies and data.
  • In Österreich
  • Länderverzeichnis
  • Für 7 Tage
  • Wassertemperatur
  • Satellitenkarten
  • Wetterkarte
  • News
  • Widgets
  • user-avatar
    Anmelden

    Stündliche Wetter Koimbra

    Heute, 25 März, Montag

    Zeit Temperatur Niederschläge Wind Luftdruck Luftfeuchtigkeit
    00:00 +14°C° 0 mm 1 m/S 758 mmHg 59%
    01:00 +14°C° 0 mm 1 m/S 758 mmHg 60%
    02:00 +14°C° 0 mm 2 m/S 758 mmHg 60%
    03:00 +13°C° 0 mm 2 m/S 758 mmHg 60%
    04:00 +13°C° 0 mm 2 m/S 758 mmHg 60%
    05:00 +12°C° 0 mm 2 m/S 758 mmHg 62%
    06:00 +14°C° 0 mm 2 m/S 758 mmHg 57%
    07:00 +16°C° 0 mm 2 m/S 758 mmHg 53%
    08:00 +18°C° 0 mm 2 m/S 758 mmHg 49%
    09:00 +20°C° 0 mm 2 m/S 758 mmHg 43%
    10:00 +23°C° 0 mm 2 m/S 757 mmHg 37%
    11:00 +26°C° 0 mm 3 m/S 757 mmHg 31%
    12:00 +26°C° 0 mm 3 m/S 757 mmHg 29%
    13:00 +26°C° 0 mm 3 m/S 756 mmHg 28%
    14:00 +27°C° 0 mm 4 m/S 756 mmHg 26%
    15:00 +26°C° 0 mm 4 m/S 755 mmHg 31%
    16:00 +24°C° 0 mm 3 m/S 755 mmHg 36%
    17:00 +22°C° 0 mm 3 m/S 755 mmHg 41%
    18:00 +20°C° 0 mm 3 m/S 755 mmHg 42%
    19:00 +19°C° 0 mm 4 m/S 755 mmHg 43%
    20:00 +17°C° 0 mm 4 m/S 756 mmHg 44%
    21:00 +15°C° 0 mm 4 m/S 756 mmHg 44%
    22:00 +14°C° 0 mm 4 m/S 756 mmHg 45%
    23:00 +13°C° 0 mm 4 m/S 756 mmHg 46%

    Morgen, 26 März, Dienstag

    Zeit Temperatur Niederschläge Wind Luftdruck Luftfeuchtigkeit
    00:00 +13°C° 0 mm 5 m/S 756 mmHg 45%
    01:00 +12°C° 0 mm 5 m/S 755 mmHg 45%
    02:00 +10°C° 0 mm 5 m/S 755 mmHg 45%
    03:00 +10°C° 0 mm 5 m/S 755 mmHg 46%
    04:00 +10°C° 0 mm 5 m/S 755 mmHg 48%
    05:00 +9°C° 0 mm 5 m/S 755 mmHg 50%
    06:00 +10°C° 0 mm 5 m/S 755 mmHg 48%
    07:00 +13°C° 0 mm 5 m/S 755 mmHg 47%
    08:00 +14°C° 0 mm 5 m/S 755 mmHg 46%
    09:00 +16°C° 0 mm 5 m/S 755 mmHg 41%
    10:00 +20°C° 0 mm 5 m/S 755 mmHg 36%
    11:00 +22°C° 0 mm 5 m/S 754 mmHg 31%
    12:00 +22°C° 0 mm 5 m/S 754 mmHg 29%
    13:00 +23°C° 0 mm 5 m/S 753 mmHg 28%
    14:00 +25°C° 0 mm 4 m/S 753 mmHg 26%
    15:00 +23°C° 0 mm 4 m/S 753 mmHg 31%
    16:00 +22°C° 0 mm 3 m/S 753 mmHg 35%
    17:00 +21°C° 0 mm 2 m/S 753 mmHg 40%
    18:00 +19°C° 0 mm 2 m/S 753 mmHg 43%
    19:00 +17°C° 0 mm 2 m/S 754 mmHg 46%
    20:00 +16°C° 0 mm 2 m/S 754 mmHg 50%
    21:00 +14°C° 0 mm 3 m/S 755 mmHg 48%
    22:00 +14°C° 0 mm 3 m/S 755 mmHg 46%
    23:00 +14°C° 0 mm 4 m/S 756 mmHg 44%

    übermorgen, 27 März, Mittwoch

    Zeit Temperatur Niederschläge Wind Luftdruck Luftfeuchtigkeit
    00:00 +13°C° 0 mm 4 m/S 756 mmHg 45%
    01:00 +13°C° 0 mm 4 m/S 756 mmHg 46%
    02:00 +12°C° 0 mm 4 m/S 757 mmHg 48%
    03:00 +12°C° 0 mm 4 m/S 757 mmHg 48%
    04:00 +11°C° 0 mm 4 m/S 758 mmHg 49%
    05:00 +11°C° 0 mm 4 m/S 758 mmHg 49%
    06:00 +12°C° 0 mm 4 m/S 758 mmHg 46%
    07:00 +13°C° 0 mm 5 m/S 759 mmHg 43%
    08:00 +15°C° 0 mm 5 m/S 759 mmHg 40%
    09:00 +18°C° 0 mm 4 m/S 759 mmHg 36%
    10:00 +19°C° 0 mm 4 m/S 759 mmHg 33%
    11:00 +21°C° 0 mm 3 m/S 759 mmHg 29%
    12:00 +22°C° 0 mm 3 m/S 759 mmHg 28%
    13:00 +24°C° 0 mm 3 m/S 759 mmHg 27%
    14:00 +24°C° 0 mm 2 m/S 758 mmHg 26%
    15:00 +23°C° 0 mm 2 m/S 758 mmHg 31%
    16:00 +21°C° 0 mm 2 m/S 758 mmHg 36%
    17:00 +20°C° 0 mm 2 m/S 758 mmHg 41%
    18:00 +18°C° 0 mm 2 m/S 759 mmHg 44%
    19:00 +16°C° 0 mm 1 m/S 759 mmHg 48%
    20:00 +14°C° 0 mm 1 m/S 760 mmHg 51%
    21:00 +14°C° 0 mm 1 m/S 760 mmHg 52%
    22:00 +13°C° 0 mm 2 m/S 760 mmHg 52%
    23:00 +13°C° 0 mm 2 m/S 760 mmHg 53%

    28 März, Donnerstag

    Zeit Temperatur Niederschläge Wind Luftdruck Luftfeuchtigkeit
    00:00 +12°C° 0 mm 2 m/S 760 mmHg 54%
    01:00 +12°C° 0 mm 2 m/S 761 mmHg 54%
    02:00 +10°C° 0 mm 2 m/S 761 mmHg 55%
    03:00 +10°C° 0 mm 2 m/S 761 mmHg 56%
    04:00 +10°C° 0 mm 3 m/S 761 mmHg 56%
    05:00 +9°C° 0 mm 3 m/S 761 mmHg 57%
    06:00 +11°C° 0 mm 3 m/S 761 mmHg 52%
    07:00 +13°C° 0 mm 3 m/S 762 mmHg 47%
    08:00 +16°C° 0 mm 3 m/S 762 mmHg 42%
    09:00 +18°C° 0 mm 3 m/S 762 mmHg 36%
    10:00 +20°C° 0 mm 3 m/S 762 mmHg 31%
    11:00 +23°C° 0 mm 2 m/S 762 mmHg 25%
    12:00 +23°C° 0 mm 2 m/S 761 mmHg 25%
    13:00 +24°C° 0 mm 2 m/S 761 mmHg 25%
    14:00 +24°C° 0 mm 2 m/S 760 mmHg 25%
    15:00 +23°C° 0 mm 2 m/S 760 mmHg 31%
    16:00 +21°C° 0 mm 2 m/S 760 mmHg 37%
    17:00 +20°C° 0 mm 2 m/S 759 mmHg 42%
    18:00 +18°C° 0 mm 2 m/S 760 mmHg 47%
    19:00 +16°C° 0 mm 1 m/S 760 mmHg 53%
    20:00 +14°C° 0 mm 1 m/S 760 mmHg 58%
    21:00 +13°C° 0 mm 1 m/S 760 mmHg 58%
    22:00 +13°C° 0 mm 1 m/S 760 mmHg 58%
    23:00 +12°C° 0 mm 1 m/S 760 mmHg 58%

    29 März, Freitag

    Zeit Temperatur Niederschläge Wind Luftdruck Luftfeuchtigkeit
    00:00 +12°C° 0 mm 1 m/S 760 mmHg 58%
    01:00 +12°C° 0 mm 1 m/S 760 mmHg 57%
    02:00 +12°C° 0 mm 2 m/S 760 mmHg 57%
    03:00 +10°C° 0 mm 2 m/S 760 mmHg 57%
    04:00 +10°C° 0 mm 2 m/S 760 mmHg 56%
    05:00 +10°C° 0 mm 2 m/S 760 mmHg 55%
    06:00 +13°C° 0 mm 2 m/S 760 mmHg 50%
    07:00 +14°C° 0 mm 3 m/S 761 mmHg 45%
    08:00 +17°C° 0 mm 3 m/S 761 mmHg 40%
    09:00 +19°C° 0 mm 3 m/S 760 mmHg 36%
    10:00 +21°C° 0 mm 3 m/S 760 mmHg 32%
    11:00 +22°C° 0 mm 3 m/S 760 mmHg 29%
    12:00 +24°C° 0 mm 3 m/S 759 mmHg 28%
    13:00 +24°C° 0 mm 3 m/S 759 mmHg 28%
    14:00 +25°C° 0 mm 2 m/S 758 mmHg 27%
    15:00 +24°C° 0 mm 2 m/S 758 mmHg 32%
    16:00 +21°C° 0 mm 2 m/S 758 mmHg 37%
    17:00 +21°C° 0 mm 1 m/S 757 mmHg 42%
    18:00 +19°C° 0 mm 1 m/S 758 mmHg 45%
    19:00 +16°C° 0 mm 1 m/S 758 mmHg 47%
    20:00 +14°C° 0 mm 1 m/S 758 mmHg 50%
    21:00 +14°C° 0 mm 1 m/S 758 mmHg 50%
    22:00 +13°C° 0 mm 1 m/S 758 mmHg 50%
    23:00 +13°C° 0 mm 1 m/S 758 mmHg 50%

    30 März, Samstag

    Zeit Temperatur Niederschläge Wind Luftdruck Luftfeuchtigkeit
    00:00 +13°C° 0 mm 2 m/S 757 mmHg 51%
    01:00 +13°C° 0 mm 2 m/S 757 mmHg 52%
    02:00 +12°C° 0 mm 2 m/S 757 mmHg 53%
    03:00 +12°C° 0 mm 2 m/S 757 mmHg 55%
    04:00 +12°C° 0 mm 2 m/S 757 mmHg 56%
    05:00 +10°C° 0 mm 2 m/S 757 mmHg 58%
    06:00 +12°C° 0 mm 3 m/S 757 mmHg 54%
    07:00 +14°C° 0 mm 3 m/S 757 mmHg 50%
    08:00 +17°C° 0 mm 3 m/S 758 mmHg 47%
    09:00 +19°C° 0 mm 2 m/S 757 mmHg 42%
    10:00 +21°C° 0 mm 2 m/S 757 mmHg 37%
    11:00 +24°C° 0 mm 2 m/S 757 mmHg 32%
    12:00 +24°C° 0 mm 2 m/S 756 mmHg 32%
    13:00 +24°C° 0 mm 2 m/S 755 mmHg 31%
    14:00 +24°C° 0 mm 2 m/S 755 mmHg 31%
    15:00 +23°C° 0 mm 2 m/S 755 mmHg 37%
    16:00 +20°C° 0 mm 2 m/S 755 mmHg 43%
    17:00 +18°C° 0 mm 2 m/S 754 mmHg 50%
    18:00 +17°C° 0 mm 2 m/S 755 mmHg 54%
    19:00 +16°C° 0 mm 2 m/S 755 mmHg 59%
    20:00 +15°C° 0 mm 1 m/S 755 mmHg 63%
    21:00 +14°C° 0 mm 1 m/S 755 mmHg 65%
    22:00 +14°C° 0 mm 1 m/S 754 mmHg 66%
    23:00 +13°C° 0 mm 1 m/S 754 mmHg 68%
    Mehr zeigen